{"data":{"norad_id":59188,"intl_designator":"2024-045L","name":"STARLINK-31478","alt_names":[],"object_type":"PAYLOAD","status":"ACTIVE","operator":null,"country":"US","launch_date":"2024-03-10","launch_site_code":"AFETR","launch_vehicle":null,"mission":null,"orbit_class":"UNKNOWN","rcs_meters":null,"size_class":null,"mass_kg":null,"dimensions":null,"purposes":["comms"],"wikipedia_slug":null,"has_3d_model":false,"image_url":null,"decayed_at":null,"tle_current":{"epoch":"2026-09-20T21:05:57.973344Z","epoch_age_seconds":126100,"freshness":"FRESH","line1":"1 59188U 24045L   26263.87914321 -.00000228  00000+0  12503-5 0  9998","line2":"2 59188  43.0023  70.1585 0001400 274.7799  85.2892 15.27583814143018","mean_motion":15.27583814,"eccentricity":0.00014,"inclination_deg":43.0023,"raan_deg":70.1585,"arg_perigee_deg":274.7799,"mean_anomaly_deg":85.2892,"bstar":1.2503e-6,"rev_number":14301,"period_min":94.266513352831,"perigee_km":482.07711112076,"apogee_km":483.99824002992,"semimajor_km":6861.1746755753,"source":"CELESTRAK","updated_at":"2026-09-21T09:00:34.063717Z"}}}